Volver al catálogo

FENGYUN 1C DEB

ActivoSSO
NORAD 31473·DEBRIS·🇨🇳 China

Lanzado May 10, 1999 desde Taiyuan Satellite Launch Center

Loading…

Próximos Pases (próximas 24 horas)

TLE

ActualizadoSource: Space-Track

Época: Sep 14, 2026, 08:29 UTC

1 31473U 99025BVM 26257.35354348  .00001883  00000-0  71037-3 0  9991
2 31473  98.5236 290.3274 0062259 281.9005 144.7674 14.31463879734620

Sigue FENGYUN 1C DEB en tiempo real con AllMySat

Download on the App Store